Weather in Temuco

Chile     38°44′00″S   72°35′41″W
temp.,
°C
wind,
m/s
gust,
m/s
humid.,
%
clouds,
%
prec.,
mm/h
press.,
hPa
HPBL,
m
7 august, sun
sun723:00+5se3897100 7.6 1019549
02:00+4se3796100 12.1 1020405
05:00+4e2796100 1.9 1020448
08:00+4se1396100 2.8 1022147
11:00+5ene2994100 1.1 1023616
14:00+8nne2694100 1.8 1023665
17:00+6ese1197100 1.6 102449
20:00+6ssw1198100 2.1 102627
8 august, mon
mon823:00+6ssw0099100 0.1 102726
02:00+6ssw1299100 0.1 102770
05:00+5sw119991 0.0 102748
08:00+3sw119944 0.0 102821
11:00+8sse128629 0.0 1028419
14:00+11ssw22691 0.0 1025857
17:00+11ssw24785 0.0 1025170
20:00+5s1197100 0.0 102612
9 august, tue
tue923:00+4sse1197100 0.0 102710
02:00+3sse1197100 0.0 102610
05:00+2ese119599 0.0 102610
08:00+2ese0091100 0.0 102610
11:00+8sse116799 0.0 1025254
14:00+12ssw1255100 0.0 1022478
17:00+10sw117578 0.0 102215
20:00+6sse0088100 0.0 102310
10 august, wed
wed1023:00+5ene0092100 0.0 102210
02:00+4ene0194100 0.0 102110
05:00+3e0095100 0.0 102010
08:00+3se1195100 0.0 102110
11:00+9w0070100 0.0 1020290
14:00+13ssw12545 0.0 1019605
17:00+11wsw11710 0.0 101814
20:00+5e00850 0.0 101910
11 august, thu
thu1123:00+4ne11920 0.0 101910
02:00+3ne11940 0.0 101913
05:00+3ne22950 0.0 101825
08:00+3ne2293100 0.0 101844
11:00+5ene0196100 2.3 101848
14:00+7nne1295100 3.9 1019127
17:00+9nnw1195100 0.4 101831
20:00+7wsw3898100 1.4 1021493